Weather History for Great Bend, KS

Change the Weather History Date:

Thursday, May 1, 2014

  Actual Average Record
Temperature  
Mean Temperature 48 °F -  
Max Temperature 64 °F 71 °F 98 °F (1992)
Min Temperature 33 °F 47 °F 33 °F (1989)
Degree Days  
Heating Degree Days 16    
Moisture  
Dew Point 24 °F    
Average Humidity 43    
Maximum Humidity 70    
Minimum Humidity 18    
Precipitation  
Precipitation 0.00 in - - ()
Sea Level Pressure  
Sea Level Pressure 30.07 in    
Wind  
Wind Speed 12 mph (NW)    
Max Wind Speed 23 mph    
Max Gust Speed 36 mph    
Visibility 10 miles    
Events      
Averages and records for this station are not official NWS values.
T = Trace of Precipitation, MM = Missing Value Source: NWS Daily Summary

Daily Weather History Graph

Daily Weather History Graph

Search for Another Location

Airport:

Trip Planner

Search our weather history database for the weather conditions in past years. The results will help you decide how hot, cold, wet, or windy it might be!

Date:

Astronomy

May. 01, 2014 Rise Set
Actual Time 6:38 AM CDT 8:27 PM CDT
Civil Twilight 6:10 AM CDT 8:55 PM CDT
Nautical Twilight 5:35 AM CDT 9:30 PM CDT
Astronomical Twilight 4:58 AM CDT 10:07 PM CDT
Moon 8:28 AM CDT (5/1) 11:00 PM CDT (5/1)
Length of Visible Light 14h 45m
Length of Day
13h 48m
Waxing Crescent, 7% of the Moon is Illuminated
May 1
Waxing Crescent
May 6
First Quarter
May 14
Full
May 21
Last Quarter
May 28
New

Hourly Weather History & Observations

Time (CDT) Temp. Windchill Dew Point Humidity Pressure Visibility Wind Dir Wind Speed Gust Speed Precip Events Conditions
12:15 AM 39.2 °F 32.5 °F 24.8 °F 56% 30.12 in 10.0 mi NW 10.4 mph - N/A   Scattered Clouds
12:35 AM 39.2 °F 33.6 °F 24.8 °F 56% 30.12 in 10.0 mi WNW 8.1 mph - N/A   Mostly Cloudy
12:55 AM 37.4 °F 30.8 °F 24.8 °F 60% 30.12 in 10.0 mi West 9.2 mph - N/A   Mostly Cloudy
1:15 AM 35.6 °F 28.6 °F 23.0 °F 60% 30.12 in 10.0 mi WNW 9.2 mph - N/A   Scattered Clouds
1:35 AM 33.8 °F 25.8 °F 23.0 °F 65% 30.12 in 10.0 mi West 10.4 mph - N/A   Partly Cloudy
1:55 AM 35.6 °F 28.6 °F 24.8 °F 65% 30.12 in 10.0 mi WNW 9.2 mph - N/A   Mostly Cloudy
2:15 AM 37.4 °F 30.3 °F 24.8 °F 60% 30.11 in 10.0 mi WNW 10.4 mph - N/A   Scattered Clouds
2:35 AM 35.6 °F 28.6 °F 24.8 °F 65% 30.11 in 10.0 mi WNW 9.2 mph - N/A   Clear
2:55 AM 37.4 °F 29.8 °F 24.8 °F 60% 30.11 in 10.0 mi WNW 11.5 mph - N/A   Clear
3:15 AM 37.4 °F 29.3 °F 24.8 °F 60% 30.10 in 10.0 mi WNW 12.7 mph - N/A   Clear
3:35 AM 37.4 °F 29.3 °F 24.8 °F 60% 30.09 in 10.0 mi WNW 12.7 mph - N/A   Clear
3:55 AM 37.4 °F 29.8 °F 24.8 °F 60% 30.09 in 10.0 mi WNW 11.5 mph - N/A   Clear
4:15 AM 37.4 °F 29.3 °F 24.8 °F 60% 30.09 in 10.0 mi WNW 12.7 mph - N/A   Clear
4:35 AM 37.4 °F 29.8 °F 24.8 °F 60% 30.09 in 10.0 mi WNW 11.5 mph - N/A   Clear
4:55 AM 37.4 °F 30.3 °F 24.8 °F 60% 30.08 in 10.0 mi WNW 10.4 mph - N/A   Clear
5:15 AM 37.4 °F 29.8 °F 24.8 °F 60% 30.08 in 10.0 mi WNW 11.5 mph - N/A   Clear
5:35 AM 37.4 °F 30.8 °F 24.8 °F 60% 30.08 in 10.0 mi West 9.2 mph - N/A   Clear
5:55 AM 35.6 °F 28.0 °F 24.8 °F 65% 30.08 in 10.0 mi West 10.4 mph - N/A   Clear
6:15 AM 33.8 °F 26.4 °F 24.8 °F 70% 30.08 in 10.0 mi West 9.2 mph - N/A   Clear
6:35 AM 33.8 °F 26.4 °F 24.8 °F 70% 30.09 in 10.0 mi West 9.2 mph - N/A   Clear
6:55 AM 33.8 °F 25.8 °F 24.8 °F 70% 30.09 in 10.0 mi West 10.4 mph - N/A   Clear
7:15 AM 37.4 °F 28.9 °F 26.6 °F 65% 30.09 in 10.0 mi WNW 13.8 mph - N/A   Clear
7:35 AM 39.2 °F 31.6 °F 26.6 °F 61% 30.09 in 10.0 mi West 12.7 mph - N/A   Clear
7:55 AM 42.8 °F 36.2 °F 28.4 °F 57% 30.09 in 10.0 mi WNW 12.7 mph - N/A   Clear
8:15 AM 44.6 °F 37.2 °F 28.4 °F 53% 30.09 in 10.0 mi WNW 17.3 mph 23.0 mph N/A   Clear
8:35 AM 46.4 °F 39.5 °F 28.4 °F 50% 30.09 in 10.0 mi NW 17.3 mph 24.2 mph N/A   Clear
8:55 AM 48.2 °F - 30.2 °F 50% 30.10 in 10.0 mi NW 18.4 mph 21.9 mph N/A   Clear
9:15 AM 50.0 °F - 30.2 °F 47% 30.10 in 10.0 mi NW 17.3 mph 24.2 mph N/A   Clear
10:15 AM 53.6 °F - 32.0 °F 44% 30.11 in 10.0 mi NW 15.0 mph 21.9 mph N/A   Clear
10:35 AM 53.6 °F - 32.0 °F 44% 30.10 in 10.0 mi NNW 19.6 mph 24.2 mph N/A   Clear
11:15 AM 57.2 °F - 30.2 °F 36% 30.09 in 10.0 mi NW 17.3 mph 25.3 mph N/A   Scattered Clouds
11:35 AM 57.2 °F - 28.4 °F 33% 30.09 in 10.0 mi NNW 17.3 mph 24.2 mph N/A   Scattered Clouds
11:55 AM 57.2 °F - 28.4 °F 33% 30.08 in 10.0 mi NNW 15.0 mph 28.8 mph N/A   Scattered Clouds
12:15 PM 57.2 °F - 28.4 °F 33% 30.08 in 10.0 mi NNW 17.3 mph 25.3 mph N/A   Scattered Clouds
12:35 PM 59.0 °F - 26.6 °F 29% 30.07 in 10.0 mi NW 18.4 mph 25.3 mph N/A   Scattered Clouds
1:15 PM 60.8 °F - 26.6 °F 27% 30.06 in 10.0 mi NNW 19.6 mph 27.6 mph N/A   Mostly Cloudy
1:35 PM 60.8 °F - 26.6 °F 27% 30.05 in 10.0 mi NW 18.4 mph 26.5 mph N/A   Partly Cloudy
1:55 PM 62.6 °F - 24.8 °F 24% 30.05 in 10.0 mi NW 23.0 mph 28.8 mph N/A   Partly Cloudy
2:15 PM 62.6 °F - 26.6 °F 26% 30.05 in 10.0 mi NNW 19.6 mph 26.5 mph N/A   Scattered Clouds
2:35 PM 62.6 °F - 24.8 °F 24% 30.05 in 10.0 mi NW 16.1 mph 26.5 mph N/A   Scattered Clouds
3:15 PM 62.6 °F - 24.8 °F 24% 30.04 in 10.0 mi NW 19.6 mph 35.7 mph N/A   Mostly Cloudy
3:35 PM 62.6 °F - 24.8 °F 24% 30.04 in 10.0 mi North 13.8 mph 31.1 mph N/A   Mostly Cloudy
3:55 PM 64.4 °F - 24.8 °F 22% 30.03 in 10.0 mi NNW 19.6 mph 29.9 mph N/A   Mostly Cloudy
4:15 PM 60.8 °F - 21.2 °F 22% 30.03 in 10.0 mi North 19.6 mph 25.3 mph N/A   Partly Cloudy
4:35 PM 64.4 °F - 23.0 °F 21% 30.02 in 10.0 mi NNW 18.4 mph 28.8 mph N/A   Partly Cloudy
4:55 PM 62.6 °F - 19.4 °F 19% 30.02 in 10.0 mi NNW 20.7 mph 33.4 mph N/A   Partly Cloudy
5:15 PM 62.6 °F - 19.4 °F 19% 30.02 in 10.0 mi North 18.4 mph 27.6 mph N/A   Clear
5:35 PM 62.6 °F - 17.6 °F 18% 30.02 in 10.0 mi NW 16.1 mph 21.9 mph N/A   Clear
5:55 PM 62.6 °F - 19.4 °F 19% 30.02 in 10.0 mi North 17.3 mph 23.0 mph N/A   Clear
6:15 PM 62.6 °F - 19.4 °F 19% 30.01 in 10.0 mi NW 12.7 mph - N/A   Clear
6:35 PM 62.6 °F - 17.6 °F 18% 30.01 in 10.0 mi NNW 13.8 mph 21.9 mph N/A   Clear
6:55 PM 60.8 °F - 17.6 °F 19% 30.01 in 10.0 mi North 15.0 mph 27.6 mph N/A   Clear
7:15 PM 60.8 °F - 17.6 °F 19% 30.01 in 10.0 mi NNW 15.0 mph 18.4 mph N/A   Clear
7:35 PM 60.8 °F - 17.6 °F 19% 30.01 in 10.0 mi North 12.7 mph - N/A   Clear
7:55 PM 57.2 °F - 19.4 °F 23% 30.01 in 10.0 mi North 10.4 mph - N/A   Clear
8:15 PM 55.4 °F - 19.4 °F 25% 30.02 in 10.0 mi North 9.2 mph - N/A   Clear
8:55 PM 51.8 °F - 21.2 °F 30% 30.02 in 10.0 mi North 6.9 mph - N/A   Clear
9:15 PM 48.2 °F - 19.4 °F 32% 30.03 in 10.0 mi NNW 5.8 mph - N/A   Clear
9:35 PM 44.6 °F 42.2 °F 19.4 °F 37% 30.03 in 10.0 mi NNW 4.6 mph - N/A   Clear
9:55 PM 44.6 °F 42.2 °F 21.2 °F 39% 30.04 in 10.0 mi NNW 4.6 mph - N/A   Clear
10:15 PM 41.0 °F 37.1 °F 21.2 °F 45% 30.05 in 10.0 mi NW 5.8 mph - N/A   Clear
10:35 PM 41.0 °F 38.0 °F 21.2 °F 45% 30.05 in 10.0 mi NW 4.6 mph - N/A   Clear
10:55 PM 39.2 °F 35.9 °F 21.2 °F 49% 30.05 in 10.0 mi NW 4.6 mph - N/A   Clear
11:15 PM 39.2 °F 34.2 °F 21.2 °F 49% 30.05 in 10.0 mi NW 6.9 mph - N/A   Clear
11:35 PM 37.4 °F 32.8 °F 21.2 °F 52% 30.05 in 10.0 mi WNW 5.8 mph - N/A   Clear
11:55 PM 37.4 °F 34.9 °F 21.2 °F 52% 30.05 in 10.0 mi WNW 3.5 mph - N/A   Clear